(179) Klytaemnestra
ephemeris date magn radius delta ra dec elong phase
Today5 Sep 202614.02.878 AU3.105 AU06h18m+22°54'67.7°18.9°
Opposition29 Dec 202612.43.004 AU2.023 AU06h33m+18°05'174.8°1.7°
(179) Klytaemnestra - 2026-09-05
astro.vanbuitenen.nl


 
-1 year
-1 month
-1 day
Now
+1 day
+1 month
+1 year

The interactive orbit chart above shows the body's path through the solar system and its position at the given date. Green and blue lines are shown perpendicular to the ecliptic plane: Green if the path is above the ecliptic plane, blue if it is below. (Left-click and drag to rotate the view; Right-click and drag to move the view; Use scroll wheel to zoom in our out.)

The orbital elements of Klytaemnestra are:

            e (Eccentricity)                : 0.1091482
            a (Semimajor axis)              : 2.9724814
            i (Inclination)                 : 7.81762
            Ω (Longitude of ascending node) : 251.82028
            ω (Argument of perihelion)      : 104.51764
            M (Mean anomaly)                : 50.14773
            Epoch                           : 2026 Jun 09

            L (Longitude of perihelion)     : 176.46828
            B (Latitude of perihelion)      : 7.56652
            P (Orbital period in years)     : 5.12            
        

The light curve chart below shows the estimated development of the minor planet's magnitude.


The all-sky chart below shows the path of the minor planet over the same period as the light curve. The current position is marked yellow.





The following chart shows the path of the minor planet in the next few days. The field of view is optimized for (~10x50) binoculars and finderscopes.




Ephemerides:
Date       Time       RA (2000)    DEC (2000)    delta   radius  elong  phase   PA    magn
2026-09-05 00:00 UT   06 18 57.9   +22 54 22     3.105    2.878   67.7   18.9   272   14.0 
2026-09-05 01:37 UT   06 19 02.9   +22 54 13     3.104    2.878   67.8   18.9   272   14.0 
2026-09-06 00:00 UT   06 20 11.8   +22 52 08     3.093    2.879   68.4   19.0   272   14.0 
2026-09-07 00:00 UT   06 21 24.9   +22 49 51     3.081    2.880   69.1   19.1   272   14.0 
2026-09-08 00:00 UT   06 22 37.3   +22 47 31     3.070    2.881   69.8   19.2   272   14.0 
2026-09-09 00:00 UT   06 23 49.0   +22 45 10     3.058    2.882   70.5   19.2   272   14.0 
2026-09-10 00:00 UT   06 24 59.8   +22 42 45     3.046    2.883   71.2   19.3   272   14.0 
2026-09-11 00:00 UT   06 26 09.9   +22 40 19     3.034    2.884   71.9   19.4   272   14.0 
2026-09-12 00:00 UT   06 27 19.1   +22 37 50     3.022    2.885   72.6   19.4   273   13.9 
2026-09-13 00:00 UT   06 28 27.6   +22 35 19     3.010    2.887   73.3   19.5   273   13.9 
2026-09-14 00:00 UT   06 29 35.2   +22 32 45     2.998    2.888   74.0   19.6   273   13.9 
2026-09-15 00:00 UT   06 30 42.0   +22 30 10     2.986    2.889   74.7   19.6   273   13.9 
2026-09-16 00:00 UT   06 31 47.9   +22 27 32     2.974    2.890   75.4   19.7   273   13.9 
2026-09-17 00:00 UT   06 32 53.0   +22 24 53     2.961    2.891   76.2   19.7   273   13.9 
2026-09-18 00:00 UT   06 33 57.1   +22 22 12     2.949    2.892   76.9   19.8   273   13.9 
2026-09-19 00:00 UT   06 35 00.4   +22 19 29     2.937    2.893   77.6   19.8   273   13.9 
2026-09-20 00:00 UT   06 36 02.8   +22 16 44     2.924    2.894   78.4   19.9   273   13.9 
2026-09-21 00:00 UT   06 37 04.3   +22 13 57     2.912    2.895   79.1   19.9   273   13.9 
2026-09-22 00:00 UT   06 38 04.8   +22 11 09     2.900    2.896   79.8   19.9   274   13.9 
2026-09-23 00:00 UT   06 39 04.5   +22 08 19     2.887    2.897   80.6   20.0   274   13.9 
2026-09-24 00:00 UT   06 40 03.1   +22 05 27     2.875    2.898   81.3   20.0   274   13.9 
2026-09-25 00:00 UT   06 41 00.8   +22 02 35     2.862    2.900   82.1   20.0   274   13.9 
2026-09-26 00:00 UT   06 41 57.6   +21 59 40     2.850    2.901   82.8   20.1   274   13.8 
2026-09-27 00:00 UT   06 42 53.3   +21 56 45     2.837    2.902   83.6   20.1   274   13.8 
2026-09-28 00:00 UT   06 43 48.0   +21 53 48     2.824    2.903   84.4   20.1   274   13.8 
2026-09-29 00:00 UT   06 44 41.8   +21 50 50     2.812    2.904   85.1   20.1   274   13.8 
2026-09-30 00:00 UT   06 45 34.4   +21 47 51     2.799    2.905   85.9   20.1   274   13.8 
2026-10-01 00:00 UT   06 46 26.1   +21 44 50     2.786    2.906   86.7   20.1   275   13.8 
2026-10-02 00:00 UT   06 47 16.7   +21 41 49     2.774    2.907   87.5   20.1   275   13.8 
2026-10-03 00:00 UT   06 48 06.2   +21 38 47     2.761    2.908   88.3   20.1   275   13.8 
2026-10-04 00:00 UT   06 48 54.6   +21 35 44     2.748    2.909   89.1   20.1   275   13.8 
2026-10-05 00:00 UT   06 49 41.9   +21 32 40     2.736    2.910   89.9   20.1   275   13.8 


    Terminology:
            
    delta:  distance between minor planet and earth in AU
    radius: distance between minor planet and sun in AU
    magn:   magnitude (brightness) estimate    
    ra:     right ascension in hours (24h = 360deg)
    dec:    declination in degrees
    elong:  elongation in degrees (angle sun-earth-minor planet)    
    phase:  phase angle in degrees (angle sun-minor planet-earth)        
    AU:     Astronomical Unit (mean distance between earth and sun: 149597870.7 km
    

Orbital elements provided by the MPC (Minor Planet Center).
Calculations by a modified version of AAPlus, a C# implementation of the AA+ project by PJ Naughter from the algorithms presented in the book "Astronomical Algorithms" by Jean Meeus.
NGC2000 dso catalog and star labels from VizieR as provided by the Strasbourg astronomical Data Center.
Tycho2 catalog from the ESO archive.